Flag for Germany Weather past 2 weeks in Bremerhaven, Bremen, Germany

Now
63 °F

Scattered clouds.


Feels Like: 63 °F
Forecast: 53 / 65 °F
Wind: 23 mph from West

Location: Nordholz

Current Time: Sep 2, 2015 at 12:58:58 PM

Latest Report: Sep 2, 2015 at 12:20 PM


Visibility: N/A

Pressure: 29.92 "Hg

Humidity: 64%

Dew point: 50 °F

Location of BremerhavenLocation

Historic Weather in Bremerhaven — Graph

°F

Bremerhaven temperature yesterday

Maximum temperature yesterday: 66 °F (at 2:55 AM)
Minimum temperature yesterday: 57 °F (at 11:20 PM)
Average temperature yesterday: 63 °F

Past Weeks' High & Low Weather Summary

 TemperatureHumidityPressure
High79 °F (Aug 31, 4:20 PM)100% (Aug 18, 4:20 PM)30.27 "Hg (Aug 18, 4:20 PM)
Low52 °F (Aug 29, 3:20 AM)34% (Aug 22, 3:20 PM)29.53 "Hg (Aug 24, 7:20 PM)
Average63 °F81%29.96 "Hg
* Reported Aug 18 11:20 AM — Sep 2 11:20 AM, Bremerhaven, Weather by CustomWeather, © 2015

Note: Actual official high and low records may vary slightly from our data, if they occured in-between our weather recording intervals... More about our weather records

Advertising

Bremerhaven weather history for previous 24 hours

 ConditionsComfort  
Time TempWeatherWind HumidityBarometerVisibility
11:20 AM
Wed, Sep 2
61 °FPassing clouds.23 mph72%29.92 "HgN/A
10:20 AM61 °FPassing clouds.23 mph72%29.89 "HgN/A
9:20 AM59 °FScattered clouds.17 mph77%29.89 "HgN/A
8:20 AM57 °FPassing clouds.18 mph82%29.89 "HgN/A
7:20 AM55 °FPassing clouds.17 mph88%29.89 "HgN/A
6:20 AM55 °FPassing clouds.17 mph88%29.89 "HgN/A
5:20 AM55 °FPassing clouds.16 mph88%29.89 "HgN/A
4:20 AM55 °FPassing clouds.16 mph94%29.89 "HgN/A
3:20 AM55 °FPassing clouds.15 mph94%29.89 "HgN/A
2:20 AM57 °FPassing clouds.15 mph88%29.89 "HgN/A
1:20 AM57 °FPassing clouds.14 mph88%29.89 "HgN/A
12:20 AM57 °FPassing clouds.13 mph88%29.89 "HgN/A
11:20 PM
Tue, Sep 1
57 °FPassing clouds.15 mph88%29.89 "HgN/A
10:20 PM59 °FPartly cloudy.13 mph77%29.89 "HgN/A
9:20 PM59 °FPassing clouds.16 mph77%29.89 "HgN/A
8:20 PM61 °FPartly sunny.16 mph77%29.86 "HgN/A
7:20 PM61 °FBroken clouds.21 mph77%29.86 "HgN/A
6:20 PM61 °FBroken clouds.18 mph77%29.86 "HgN/A
5:20 PM63 °FBroken clouds.21 mph77%29.83 "HgN/A
4:20 PM61 °FPartly sunny.15 mph88%29.83 "HgN/A
3:20 PM61 °FScattered showers. Broken clouds.12 mph94%29.83 "HgN/A
2:20 PM63 °FScattered showers. Broken clouds.18 mph83%29.80 "HgN/A
1:20 PM63 °FSprinkles. Broken clouds.20 mph83%29.80 "HgN/A
12:20 PM63 °FBroken clouds.16 mph83%29.80 "HgN/A
Weather by CustomWeather, © 2015

See weather overviewHow to use our weather pages